www.pogodaiklimat.ru

Погода и климат >> Архив погоды >> Мексика >> Tuxpan. Ver.


ПОГОДА в Tuxpan. Ver.

  • Прогноз погоды в Tuxpan. Ver.
  • Монитор погоды в Tuxpan. Ver.
  • Климат города

АРХИВ ПОГОДЫ в Tuxpan. Ver.

Время (UTC), дата Ветер
(напр.,м/с)
 
Видим.   Явления Облачность Т
(С)
Тd
(С)
f
(%)
Тe
(С)
Тes
(С)
Комфортность P
(гПа)
Po
(гПа)
Тmin
(С)
Tmax
(С)
R
(мм)
R24
(мм)
S
(см)
18 12.09 СЗ 2 8000 м 1/1 570 м
[Cu med, cong]
+29.0 +24.5 77 +41 +59 опасность
перегрева
1016.1 1014.9 +20.0 +30.6
21 12.09 СЗ 2 8000 м 1/1 600 м
[Cu med, cong]
+31.4 +26.8 77 +49 +60 опасность
перегрева
1013.2 1012.1
00 13.09 СЗ 2 8000 м ясно +30.6 +26.8 80 +48 +48 опасность
перегрева
1011.9 1010.8 +20.0 +33.0
03 13.09 штиль 0 1000 м ясно +26.8 +25.1 90 +39 +39 очень
душно
1010.6 1009.4
06 13.09 штиль 0 1000 м ясно +24.4 +23.8 96 +33 +33 очень
душно
1012.7 1011.6 +20.0 +33.0
09 13.09 штиль 0 1000 м ясно +23.6 +23.0 96 +31 +31 очень
душно
1014.1 1012.9
12 13.09 штиль 0 1000 м ясно +22.4 +21.8 96 +30 +30 очень
душно
1012.2 1011.1 +22.2 +33.0
15 13.09 ЮЗ 1 8000 м дымка {туман} 5/3 210 м
[Sc diur, vesp As trans]
+23.6 +22.1 91 +30 +36 очень
душно
1014.3 1013.2
18 13.09 ЮЗ 1 8000 м мгла {туман} 3/3 630 м
[Sc]
+29.8 +24.8 75 +43 +59 опасность
перегрева
1013.7 1012.6 +21.4 +31.4
21 13.09 ЮЗ 1 8000 м 3/1 720 м
[Cu med, cong Ac trans]
+32.6 +26.9 72 +50 +62 опасность
перегрева
1011.2 1010.1
00 14.09 ЮЗ 2 8000 м 4/1 300 м
[Cu med, cong Ac trans]
+30.4 +27.7 86 +50 +50 опасность
перегрева
1011.0 1009.9 +21.4 +34.2
03 14.09 штиль 0 1000 м ясно +27.0 +26.4 97 +41 +41 опасность
перегрева
1009.6 1008.5
06 14.09 штиль 0 1000 м ясно +24.4 +23.8 96 +33 +33 очень
душно
1011.4 1010.2 +21.4 +34.2
09 14.09 штиль 0 1000 м ясно +23.6 +23.0 96 +31 +31 очень
душно
1010.3 1009.2
12 14.09 штиль 0 1000 м ясно +22.0 +21.4 96 +29 +29 очень
душно
1010.1 1009.0 +21.8 +34.2
15 14.09 ЮЗ 1 8000 м дымка {туман} 4/3 240 м
[St Ac trans]
+23.8 +22.0 90 +31 +36 очень
душно
1013.0 1011.9
18 14.09 ЮЗ 1 8000 м мгла {туман} 5/4 330 м
[Cu med, cong As trans]
+29.8 +27.3 86 +47 +60 опасность
перегрева
1012.8 1011.6 +20.8 +31.4
21 14.09 ЮВ 2 8000 м 4/1 480 м
[Cu med, cong As trans]
+32.2 +28.4 80 +54 +62 опасность
перегрева
1010.5 1009.3
00 15.09 ЮЗ 2 8000 м 5/3 200 м
[Sc As trans]
+30.8 +28.9 90 +54 +54 опасность
перегрева
1010.0 1008.9 +20.8 +33.8
03 15.09 штиль 0 1000 м ясно +27.0 +26.4 97 +41 +41 опасность
перегрева
1009.9 1008.7
06 15.09 штиль 0 1000 м ясно +24.4 +23.8 96 +33 +33 очень
душно
1010.9 1009.7 +20.8 +33.8
09 15.09 штиль 0 1000 м ясно +23.2 +22.6 96 +32 +32 очень
душно
1011.7 1010.6
12 15.09 штиль 0 1000 м ясно +23.0 +22.4 96 +31 +31 очень
душно
1009.6 1008.4 +22.8 +33.8
15 15.09 ЮЗ 1 8000 м дымка {туман} 8/4 120 м
[Cu med, cong As trans]
+25.6 +24.7 95 +36 +39 очень
душно
1012.3 1011.1
18 15.09 ЮЗ 1 8000 м мгла {туман} 5/4 400 м
[Cu med, cong As trans]
+30.6 +27.6 84 +49 +62 опасность
перегрева
1012.8 1011.7 +21.8 +32.2
21 15.09 С 2 8000 м 4/1 540 м
[Cu med, cong Cs]
+33.2 +28.9 78 +56 +67 опасность
перегрева
1010.5 1009.3
00 16.09 ЮЗ 2 8000 м 4/3 100 м
[Cu med, cong Cs]
+30.8 +29.5 93 +55 +55 опасность
перегрева
1010.3 1009.2 +21.8 +34.8
03 16.09 ЮВ 2 1000 м 4/4 270 м
[Cu med, cong]
+27.4 +25.2 88 +40 +40 очень
душно
1012.2 1011.1
06 16.09 ЮВ 1 1000 м 6/6 210 м
[Cu med, cong]
+27.0 +25.3 90 +39 +39 очень
душно
1013.6 1012.5 +21.8 +34.8
09 16.09 штиль 0 1000 м 8/8 210 м
[Cu med, cong]
+26.8 +25.1 90 +39 +39 очень
душно
1013.2 1012.1
12 16.09 штиль 0 1000 м дымка {туман} 4/4 30 м
[Cu med, cong]
+25.8 +25.5 98 +38 +38 очень
душно
1013.7 1012.5 +24.4 +34.8
15 16.09 ЮЗ 1 8000 м дымка {туман} 8/4 270 м
[Sc diur, vesp As op]
+26.2 +24.2 89 +36 +39 очень
душно
1015.7 1014.6
18 16.09 ЮЗ 1 8000 м 6/3 400 м
[Cu hum As op]
+30.6 +27.6 84 +49 +60 опасность
перегрева
1014.9 1013.7 +24.4 +32.2
21 16.09 ЮВ 1 8000 м 6/3 330 м
[Cu hum Ac trans]
+32.0 +29.6 87 +57 +65 опасность
перегрева
1012.2 1011.1
00 17.09 ЮЗ 1 8000 м 4/4 300 м
[Cu med, cong]
+30.4 +29.1 93 +53 +54 опасность
перегрева
1012.0 1010.9 +24.4 +33.8
03 17.09 ЮВ 1 1000 м 4/4 180 м
[Cu med, cong]
+28.4 +27.0 92 +45 +45 опасность
перегрева
1012.5 1011.3
06 17.09 штиль 0 1000 м 6/6 60 м
[Cu med, cong]
+26.8 +26.2 97 +41 +41 опасность
перегрева
1014.4 1013.3 +24.4 +33.8
09 17.09 штиль 0 1000 м 4/4 30 м
[Cu med, cong]
+26.6 +26.3 98 +40 +40 очень
душно
1014.4 1013.3
12 17.09 штиль 0 1000 м дымка {туман} 10/6 30 м
[Cu med, cong As op]
+26.4 +26.1 98 +39 +39 очень
душно
1015.1 1014.0 +25.2 +33.8
15 17.09 СЗ 2 8000 м в посл. час гроза {дождь} 10/5 120 м
[Cb cap As op]
+26.0 +25.2 95 +37 +38 очень
душно
1016.9 1015.7 8
18 17.09 СЗ 2 8000 м {дождь} 9/5 200 м
[Frnb Ac trans]
+30.4 +28.5 90 +52 +57 опасность
перегрева
1016.0 1014.9 8
21 17.09 ЮЗ 2 8000 м 5/5 330 м
[Cu med, cong]
+29.0 +24 +30 комфорт 1013.6 1012.4
00 18.09 ЮЗ 2 8000 м 3/3 200 м
[Cu med, cong]
+31.2 +29.1 89 +55 +55 опасность
перегрева
1013.4 1012.2 +25.0 +33.2
03 18.09 ЮЗ 2 1000 м 4/4 210 м
[Cu med, cong]
+28.8 +27.2 91 +46 +46 опасность
перегрева
1014.2 1013.1
06 18.09 ЮЗ 1 1000 м ясно +27.4 +26.8 97 +43 +43 опасность
перегрева
1015.9 1014.7 +25.0 +33.2
09 18.09 штиль 0 1000 м 4/4 30 м
[Cu med, cong]
+26.4 +26.1 98 +39 +39 очень
душно
1015.4 1019.2
12 18.09 СВ 1 1000 м слабая морось {дождь} 6/3 <50 м
[Frnb As op]
+25.2 +24.9 98 +36 +36 очень
душно
1015.2 1014.0 11
15 18.09 ЮЗ 1 8000 м в посл. час морось 5/4 120 м
[Cu med, cong As trans]
+26.8 +26.0 95 +40 +45 очень
душно
1017.0 1015.8 0.0
18 18.09 ЮЗ 1 8000 м {морось} 5/4 300 м
[Cu med, cong Ac trans]
+31.6 +28.9 86 +55 +67 опасность
перегрева
1016.4 1015.2 0.0
21 18.09 ЮВ 1 8000 м 4/3 500 м
[Cu med, cong As trans]
+33.2 +29.2 80 +58 +67 опасность
перегрева
1016.4 1015.2
00 19.09 ЮЗ 2 8000 м 4/3 200 м
[Cu med, cong Ci]
+31.2 +29.3 90 +55 +56 опасность
перегрева
1012.7 1013.8 +24.2 +34.8
03 19.09 ЮВ 1 1000 м 4/4 150 м
[Cu med, cong]
+28.4 +27.3 94 +45 +45 опасность
перегрева
1014.1 1013.0
06 19.09 штиль 0 1000 м 6/6 90 м
[Cu med, cong]
+27.0 +26.4 97 +41 +41 опасность
перегрева
1015.9 1014.8 +24.2 +34.8
09 19.09 штиль 0 1000 м 3/3 90 м
[Cu med, cong]
+26.8 +26.2 97 +41 +41 опасность
перегрева
1014.4 1013.3
12 19.09 СВ 1 1000 м 3/3 60 м
[Sc diur, vesp]
+25.0 +24.7 98 +35 +35 очень
душно
1014.7 1013.6 +24.2 +34.8

 

Местоположение метеостанции Tuxpan. Ver. (Мексика): широта 20.95 долгота -97.40 высота над уровнем моря 28 м.

В архиве по умолчанию представлена погода в Tuxpan. Ver. за последнюю неделю. Архивные данные за месяц целиком и за предыдущие месяцы, начиная с января 2011 года, Вы можете получить, выбрав интересующий диапазон дат из раскрывающегося списка и нажав кнопку "Ввод!".

Внимание! Время в таблицах - всемирное. Для получения местного времени необходимо прибавить поправку, которая в Tuxpan. Ver. равна -6 ч.

Смотрите также архив погоды в соседних городах и на ближайших метеорологических станциях:

Погода в Tulancingo (Мексика) (140 км)
Погода в Tampico (Мексика) (147 км)
Погода в Matlapa (Мексика) (152 км)
Погода в Jalapa (Мексика) (164 км)
Погода в Pachuca (Мексика) (168 км)
Погода в Tamuin (Мексика) (183 км)
Погода в Tlaxcala (Мексика) (202 км)
Погода в Tlaxcala Airport (Мексика) (202 км)
Погода в Puebla (Мексика) (226 км)
Погода в Cordoba-In-Veracruz (Мексика) (233 км)

Пояснения к столбцам:

Ветер - указаны скорость ветра в м/с - средняя за 10 мин, порывы в срок и между сроками (в фигурных скобках) и направление, откуда дует ветер: С - северный, СВ - северо-восточный, В - восточный, ЮВ - юго-восточный, Ю - южный, ЮЗ - юго-западный, З - западный, СЗ - северо-западный.
Видимость - горизонтальная дальность видимости в метрах или километрах. При видимости от 1 до 10 км при отсутствии осадков обычно наблюдается дымка, при ухудшении видимости до 1 км и менее - туман. В сухую погоду видимость может ухудшаться дымом, пылью или мглою.
Явления - указаны атмосферные явления, наблюдавшиеся в срок или в последний час перед сроком; фигурными скобками обозначены явления, наблюдавшиеся между сроками (за 1-3 часа до срока); квадратными скобками обозначены град или гололедные отложения с указанием их диаметра в мм.
Облачность - указаны через наклонную черту общая и нижняя облачность в баллах и высота нижней границы облаков в метрах; квадратными скобками обозначены формы облаков: Ci - перистые, Cs - перисто-слоистые, Cc - перисто-кучевые, Ac - высококучевые, As - высокослоистые, Sc - слоисто-кучевые, Ns - слоисто-дождевые, Cu - кучевые, Cb - кучево-дождевые. Подробнее классификацию облаков см. в Атласе облаков (PDF).
T - Температура воздуха - температура, измеренная на высоте 2 м над землей.
Td - Температура точки росы - температура, при понижении до которой содержащийся в воздухе водяной пар достигнет насыщения.
f - Относительная влажность воздуха - влажноcть воздуха, измеренная на высоте 2 м над землей.
Te - Эффективная температура - температура, которую ощущает одетый по сезону человек в тени. Характеристика душности погоды. При расчете учитывается влияние влажности воздуха и скорости ветра на теплоощущения человека.
Tes - Эффективная температура на солнце - температура, которую ощущает человек, с поправкой на солнечный нагрев. Характеристика знойности погоды. Зависит от высоты солнца над горизонтом, облачности и скорости ветра. Ночью, в пасмурную погоду, а также при ветре 12 м/с и более поправка равна нулю.
P - Атмосферное давление - приведенное к уровню моря атмосферное давление.
Po - Атмосферное давление - измеренное на уровне метеостанции атмосферное давление.
Tmin - Минимальная температура - минимум температуры воздуха на высоте 2 м над землей.
Tmax - Максимальная температура - максимум температуры воздуха на высоте 2 м над землей.
R - Количество осадков - Количество выпавших осадков за период времени, мм. При наведении курсора мыши на число - период времени, за который выпало указанное количество осадков.
R24 - Количество осадков - Количество выпавших осадков за 24 часа, мм.
S - Снежный покров - Высота снежного покрова, см. При наведении курсора мыши на число - состояние снежного покрова и степень покрытия местности в баллах.